Regional Weather Roundup
Issued by NWS

Home | Current Version | Previous Version | Graphics & Text | Print | Product List | Glossary Off
Versions: 1 2 3 4 5 6 7 8 9 10 11 12 13 14 15 16 17 18 19 20 21 22 23 24 25 26 27 28 29 30 31 32 33 34 35 36 37 38 39 40 41 42 43 44 45 46 47 48 49 50

000
ASUS43 KTOP 050308
RWRKS

WEATHER ROUNDUP FOR KANSAS
NATIONAL WEATHER SERVICE GOODLAND KS
1000 PM CDT FRI SEP 04 2015

NOTE:  "FAIR" INDICATES FEW OR NO CLOUDS BELOW 12,000 FEET WITH NO
SIGNIFICANT WEATHER AND/OR OBSTRUCTIONS TO VISIBILITY.

KSZ001>006-013>018-027>032-041>047-050400-
NORTHWEST KANSAS

CITY           SKY/WX    TMP DP  RH WIND       PRES   REMARKS
GOODLAND       MOCLDY    79  52  38 S10       29.89R
HAYS           CLEAR     84  61  45 SE16      29.88R
HILL CITY      PTCLDY    86  59  39 S12       29.86R
RUSSELL        CLEAR     85  61  44 S17G26    29.87R
$$

KSZ061>065-074>080-084>089-050400-
SOUTHWEST KANSAS

CITY           SKY/WX    TMP DP  RH WIND       PRES   REMARKS
DODGE CITY     CLEAR     81  58  45 S16       29.93R
ELKHART          N/A     76  56  50 S8          N/A
GARDEN CITY    CLEAR     80  58  46 S14       29.91R
GREAT BEND     CLEAR     82  61  47 S17       29.90R
LIBERAL        MOCLDY    82  55  39 S14       29.94R
PRATT          CLEAR     82  59  44 MISG      29.95R
$$

KSZ066>073-081>083-090>101-050400-
SOUTHEAST KANSAS

CITY           SKY/WX    TMP DP  RH WIND       PRES   REMARKS
CHANUTE        CLEAR     78  71  79 SE7       29.98R
COFFEYVILLE    CLEAR     78  71  79 SE7       29.97R
HUTCHINSON     PTCLDY    80  65  59 SE12      29.93R
MEDICINE LODGE   N/A     84  63  49 S6        29.92R
NEWTON         CLEAR     79  63  57 SE9       29.97R
PARSONS        CLEAR     78  72  81 SE3       29.99R
WICHITA INTL   PTCLDY    82  68  62 SE13      29.93R
WICHITA JABRA  CLEAR     81  68  64 SE12      29.94R
WICHITA MCCONL CLEAR     81  67  63 SE12      29.94R
WINFIELD       CLEAR     81  69  67 SE8       29.95R
$$

KSZ007>012-019>026-033>040-048>060-102>105-050400-
NORTHEAST KANSAS

CITY           SKY/WX    TMP DP  RH WIND       PRES   REMARKS
CONCORDIA      CLEAR     82  66  58 S16       29.90R
EMPORIA        CLEAR     78  69  73 SE12      29.96R
LAWRENCE       CLEAR     75  69  81 SE6       29.96R
MANHATTAN      CLEAR     81  69  67 S10       29.92R
MARYSVILLE     CLEAR     79  68  69 SE9       29.92R
OLATHE IND     CLEAR     77  69  76 S7        29.99R
OLATHE EXE     CLEAR     75  68  78 S8        29.98R
SALINA         CLEAR     83  66  56 S13       29.90R
TOPEKA BILLARD CLEAR     80  69  69 SE9       29.95R
TOPEKA FORBES  CLEAR     78  69  73 SE7       29.96R
$$


USA.gov is the U.S. government's official web portal to all federal, state and local government web resources and services.